{"data":{"norad_id":67963,"intl_designator":"2026-038C","name":"STARLINK-36357","alt_names":[],"object_type":"PAYLOAD","status":"ACTIVE","operator":null,"country":"US","launch_date":"2026-02-25","launch_site_code":"AFWTR","launch_vehicle":null,"mission":null,"orbit_class":"UNKNOWN","rcs_meters":null,"size_class":null,"mass_kg":null,"dimensions":null,"purposes":["comms"],"wikipedia_slug":null,"has_3d_model":false,"image_url":null,"decayed_at":null,"tle_current":{"epoch":"2026-05-25T00:26:32.057376Z","epoch_age_seconds":69613,"freshness":"FRESH","line1":"1 67963U 26038C   26145.01842659  .00012685  00000+0  39458-3 0  9996","line2":"2 67963  97.2841 154.9989 0000845  84.4218 275.7121 15.33446044 14939","mean_motion":15.33446044,"eccentricity":8.45e-5,"inclination_deg":97.2841,"raan_deg":154.9989,"arg_perigee_deg":84.4218,"mean_anomaly_deg":275.7121,"bstar":0.00039458,"rev_number":1493,"period_min":93.906140723658,"perigee_km":464.96177755814,"apogee_km":466.11835898268,"semimajor_km":6843.6770682704,"source":"CELESTRAK","updated_at":"2026-05-25T13:38:21.773111Z"}}}